Powrót do katalogu

STARLINK-2616

AktywnyŁącznośćVLEO
NORAD 48695·PAYLOAD·🇺🇸 United States

Wystrzelony May 26, 2021 z Cape Canaveral Space Force Station

Loading…

Następne Przeloty (najbliższe 24 godziny)

TLE

ŚwieżeSource: CelesTrak SupGP

Epoka: Sep 14, 2026, 20:45 UTC

1 48695C 21044BK  26257.86506944  .00035312  00000+0  11354-2 0  2573
2 48695  53.1580 277.4080 0001125  87.0834 225.1064 15.31688400    10

Śledź STARLINK-2616 w czasie rzeczywistym z AllMySat

Download on the App Store